[[[{"header":{"parameterUnit":"kt","parameterCategory":2,"dx":1,"dy":1,"la1":30.253999710083008,"la2":30.299108505249023,"lo1":-89.0895004272461,"lo2":-89.04439544677734,"nx":28,"ny":28,"refTime":"2022-10-16T21:00:00:Z","depth":0,"parameterNumber":1,"parameterNumberName":"U-component_of_WINDS"},"data":[3.7871,3.7902,3.7924,3.7971,3.7998,3.8033,3.8053,3.808,3.8108,3.8152,3.8182,3.8206,3.8241,3.8281,3.8313,3.8323,3.8335,3.8333,3.8345,3.8338,3.8338,3.8338,3.8333,3.8336,3.8336,3.8349,3.8349,3.8349,3.7871,3.7898,3.7928,3.7972,3.7999,3.8015,3.8051,3.8072,3.8102,3.8135,3.8164,3.8205,3.8238,3.8274,3.831,3.8326,3.8335,3.8334,3.8333,3.8338,3.8332,3.8325,3.8327,3.8327,3.8327,3.8327,3.8327,3.8327,3.7877,3.7894,3.7933,3.7965,3.7992,3.8021,3.8041,3.807,3.8099,3.8139,3.8157,3.8191,3.8227,3.8278,3.83,3.8328,3.8331,3.8336,3.8338,3.8339,3.8338,3.8319,3.8334,3.8335,3.8335,3.8335,3.8335,0,3.7887,3.7904,3.7933,3.7969,3.7993,3.8022,3.8052,3.8065,3.8104,3.8126,3.8159,3.8182,3.8226,3.8259,3.8295,3.8317,3.8333,3.8336,3.834,3.8332,3.8322,3.8329,3.8319,3.8335,3.8335,3.8335,3.8335,3.8335,3.7896,3.7912,3.796,3.7978,3.7999,3.8026,3.8046,3.8079,3.8099,3.814,3.8153,3.8186,3.8214,3.8263,3.8293,3.8325,3.8333,3.8337,3.8337,3.8331,3.8334,3.8333,3.8336,3.8336,3.8336,3.8336,3.8336,0,3.7899,3.7931,3.7962,3.8007,3.8019,3.8035,3.8073,3.8091,3.8115,3.8142,3.8151,3.8188,3.8218,3.8248,3.8287,3.8302,3.833,3.8337,3.832,3.8323,3.8331,3.833,3.8348,3.8353,3.835,3.835,3.835,0,3.7918,3.7937,3.7985,3.8,3.8024,3.8056,3.8078,3.81,3.8129,3.8151,3.8175,3.8194,3.8228,3.8253,3.8273,3.8302,3.8308,3.8321,3.8326,3.8319,3.8317,3.8328,3.8328,3.8335,3.8335,3.8335,3.8335,0,3.7919,3.7965,3.7992,3.8007,3.8055,3.8066,3.8087,3.8118,3.8136,3.8165,3.8177,3.8207,3.8224,3.8247,3.8273,3.8273,3.8307,3.8311,3.832,3.832,3.8325,3.8324,3.8335,3.8335,3.8335,3.8335,3.8335,0,3.7939,3.7967,3.7999,3.804,3.8051,3.8067,3.8099,3.812,3.8151,3.8165,3.8187,3.8205,3.823,3.8233,3.8268,3.826,3.8276,3.829,3.8291,3.8293,3.8295,3.8298,3.8304,3.8307,3.8299,3.8299,3.8299,0,3.7933,3.7973,3.7999,3.8028,3.8051,3.8076,3.8095,3.8121,3.8141,3.8163,3.8185,3.8208,3.8216,3.8227,3.8241,3.8264,3.8275,3.8263,3.8295,3.8296,3.8287,3.8294,3.8287,3.83,3.8295,3.8295,3.8296,0,3.7931,3.7987,3.799,3.8009,3.8047,3.8064,3.8085,3.8115,3.8129,3.8153,3.8172,3.8205,3.8213,3.8229,3.8245,3.8258,3.8269,3.8264,3.8265,3.8265,3.8295,3.8289,3.8291,3.8277,3.8277,3.8278,3.8293,0,3.7957,3.7978,3.7988,3.8024,3.8042,3.806,3.8089,3.8104,3.8119,3.8138,3.8165,3.819,3.8218,3.8226,3.8238,3.8258,3.8259,3.8265,3.8268,3.8272,3.8278,3.828,3.8258,3.8258,3.8258,3.8259,0,0,3.7943,3.7974,3.7999,3.802,3.8036,3.8059,3.8077,3.8095,3.8129,3.814,3.8143,3.8191,3.8209,3.8238,3.8242,3.8252,3.8258,3.8254,3.827,3.8271,3.8272,3.8278,3.828,3.8259,3.8259,3.8259,3.8259,0,3.7958,3.7978,3.7994,3.8014,3.8045,3.8064,3.8068,3.8101,3.8114,3.8138,3.8155,3.8174,3.8208,3.8227,3.8242,3.8252,3.8263,3.8258,3.8256,3.8271,3.8272,3.8273,3.8278,3.828,3.826,3.826,3.826,0,3.7962,3.7987,3.7997,3.8033,3.8052,3.8072,3.8084,3.8103,3.8118,3.8138,3.8161,3.8178,3.8204,3.8226,3.8237,3.8239,3.8266,3.826,3.826,3.8261,3.8276,3.8277,3.8278,3.8266,3.8266,3.8266,0,0,3.797,3.7989,3.8024,3.8037,3.8049,3.8076,3.8088,3.8103,3.8127,3.8136,3.8156,3.8178,3.82,3.8212,3.8232,3.8252,3.826,3.826,3.826,3.8259,3.826,3.8276,3.8277,3.8266,3.8266,3.8266,0,0,3.7973,3.8014,3.8024,3.8044,3.8066,3.8099,3.8107,3.8119,3.814,3.8141,3.8164,3.8171,3.8191,3.8206,3.8199,3.8234,3.8236,3.8238,3.8223,3.8223,3.8223,3.8218,3.8212,0,0,0,0,0,3.8002,3.801,3.8018,3.8026,3.8068,3.8095,3.8101,3.8121,3.8124,3.813,3.815,3.8159,3.8208,3.8203,3.8209,3.8215,3.8262,3.8263,3.8264,3.8249,3.8249,3.8248,0,0,0,0,0,0,3.8005,3.8013,3.8018,3.8051,3.8061,3.8095,3.8104,3.811,3.8124,3.8126,3.8155,3.816,3.8177,3.8201,3.8206,3.8212,3.821,3.8263,3.8263,3.8264,3.8249,3.8249,3.8248,0,0,0,0,0,3.8007,3.8014,3.8077,3.8051,3.806,3.8089,3.8104,3.8109,3.812,3.8149,3.8154,3.8134,3.8176,3.8182,3.8204,3.8209,3.8206,3.8208,3.8263,3.8263,3.8264,3.8249,0,0,0,0,0,0,3.8009,3.8019,3.8079,3.8083,3.8049,3.8088,3.8095,3.8108,3.8142,3.8148,3.8128,3.8129,3.8176,3.8181,3.8185,3.8207,3.8204,3.8206,3.8207,3.8263,3.8264,3.8264,0,0,0,0,0,0,3.8015,3.8021,3.8081,3.8077,3.808,3.8086,3.8092,3.8113,3.8142,3.812,3.8122,3.8128,3.8169,3.818,3.8183,3.8214,3.8201,3.8203,3.8205,3.8205,3.8264,3.8264,0,0,0,0,0,0,3.8018,3.8023,3.8076,3.8079,3.8081,3.8121,3.8105,3.8147,3.814,3.8118,3.814,3.814,3.8168,3.8172,3.8182,3.8211,3.8214,3.8201,3.8203,3.8204,3.8204,0,0,0,0,0,0,0,3.802,3.7979,3.806,3.808,3.8082,3.8114,3.8115,3.8116,3.814,3.814,3.814,3.814,3.8191,3.8193,3.8195,3.8209,0,0,3.8201,3.8202,0,0,0,0,0,0,0,0,3.7977,3.7979,3.806,3.806,3.8061,3.8114,3.8115,3.8116,3.814,3.814,3.814,3.814,3.8191,3.8193,3.8195,0,0,0,0,0,0,0,0,0,0,0,0,0,0,0,3.806,3.806,0,3.8114,3.8115,3.8115,3.814,3.814,3.814,3.814,3.8192,3.8193,3.8194,0,0,0,0,0,0,0,0,0,0,0,0,0,0,0,0,0,0,0,0,0,0,0,0,0,0,0,0,0,0,0,0,0,0,0,0,0,0,0,0,0,0,0,0,0,0,0,0,0,0,0,0,0,0,0,0,0,0,0,0,0,0,0,0,0,0,0,0,0]}],[{"header":{"parameterUnit":"kt","parameterCategory":2,"dx":1,"dy":1,"la1":30.253999710083008,"la2":30.299108505249023,"lo1":-89.0895004272461,"lo2":-89.04439544677734,"nx":28,"ny":28,"refTime":"2022-10-16T21:00:00:Z","depth":0,"parameterNumber":2,"parameterNumberName":"V-component_of_WINDS"},"data":[-2.1364,-2.141,-2.1415,-2.1471,-2.1484,-2.1523,-2.1539,-2.156,-2.1578,-2.1626,-2.1655,-2.1665,-2.1685,-2.1721,-2.1754,-2.1758,-2.1772,-2.1787,-2.1789,-2.1718,-2.1708,-2.17,-2.1689,-2.1789,-2.1789,-2.1862,-2.1863,-2.1864,-2.1317,-2.1331,-2.136,-2.1392,-2.1419,-2.1408,-2.1432,-2.1456,-2.1491,-2.1513,-2.154,-2.1583,-2.1618,-2.1633,-2.1667,-2.1691,-2.1689,-2.1701,-2.17,-2.1704,-2.1628,-2.1616,-2.1703,-2.1703,-2.1703,-2.1703,-2.1703,-2.1703,-2.1234,-2.1261,-2.1282,-2.1314,-2.1331,-2.1352,-2.1379,-2.1389,-2.1419,-2.1453,-2.1452,-2.1492,-2.1515,-2.1557,-2.1572,-2.1604,-2.1592,-2.1606,-2.161,-2.1615,-2.162,-2.1519,-2.161,-2.161,-2.1609,-2.1609,-2.1609,0,-2.1174,-2.1176,-2.1203,-2.1233,-2.1256,-2.1279,-2.1301,-2.1317,-2.1321,-2.1345,-2.138,-2.1402,-2.1444,-2.1479,-2.151,-2.1523,-2.1514,-2.1513,-2.1523,-2.1526,-2.1526,-2.153,-2.1408,-2.151,-2.1509,-2.1508,-2.1508,-2.1508,-2.1093,-2.1122,-2.1144,-2.1164,-2.1176,-2.1206,-2.1225,-2.1225,-2.1246,-2.1273,-2.1297,-2.133,-2.1357,-2.1414,-2.1425,-2.1456,-2.1453,-2.1492,-2.1457,-2.146,-2.1457,-2.1456,-2.146,-2.1499,-2.15,-2.1501,-2.1502,0,-2.1047,-2.1051,-2.1098,-2.1116,-2.1122,-2.1153,-2.117,-2.1196,-2.1202,-2.1239,-2.1248,-2.1257,-2.1292,-2.1296,-2.1335,-2.1337,-2.1394,-2.1388,-2.1388,-2.1387,-2.1425,-2.1422,-2.154,-2.1557,-2.145,-2.1451,-2.1452,0,-2.098,-2.1018,-2.1023,-2.1049,-2.1093,-2.109,-2.1134,-2.1142,-2.1159,-2.1189,-2.1178,-2.1206,-2.1206,-2.1236,-2.1237,-2.1284,-2.129,-2.1295,-2.1295,-2.1297,-2.1297,-2.1309,-2.1305,-2.1291,-2.129,-2.129,-2.1289,0,-2.091,-2.0955,-2.0998,-2.1009,-2.1031,-2.1051,-2.1062,-2.108,-2.1098,-2.1122,-2.1134,-2.1162,-2.1178,-2.12,-2.1202,-2.1179,-2.1258,-2.1226,-2.1263,-2.1263,-2.1281,-2.128,-2.1382,-2.1288,-2.1288,-2.1288,-2.1288,0,-2.0856,-2.0879,-2.0939,-2.0958,-2.097,-2.0997,-2.1024,-2.1048,-2.1068,-2.1071,-2.1089,-2.1082,-2.112,-2.1089,-2.1143,-2.1113,-2.113,-2.1137,-2.1139,-2.1144,-2.111,-2.117,-2.1264,-2.1276,-2.1148,-2.1147,-2.1146,0,-2.0777,-2.0837,-2.0835,-2.0892,-2.092,-2.0906,-2.0937,-2.0953,-2.0959,-2.0985,-2.0991,-2.102,-2.0997,-2.1006,-2.1032,-2.104,-2.1079,-2.1034,-2.1076,-2.1077,-2.1073,-2.116,-2.1174,-2.1243,-2.1131,-2.1133,-2.1134,0,-2.0715,-2.0739,-2.0749,-2.0762,-2.0781,-2.0804,-2.0839,-2.0866,-2.0884,-2.0901,-2.0932,-2.0971,-2.0957,-2.0971,-2.0968,-2.0995,-2.1053,-2.0975,-2.0975,-2.0991,-2.1122,-2.1136,-2.1148,-2.1045,-2.1047,-2.1048,-2.1122,0,-2.0639,-2.0668,-2.0694,-2.0719,-2.0736,-2.077,-2.0771,-2.079,-2.0785,-2.0788,-2.0832,-2.0844,-2.0871,-2.0883,-2.0877,-2.0936,-2.0927,-2.091,-2.0881,-2.0937,-2.0961,-2.0971,-2.0844,-2.0844,-2.0843,-2.0842,0,0,-2.0563,-2.0604,-2.0598,-2.063,-2.0644,-2.0627,-2.0664,-2.0676,-2.07,-2.0711,-2.0695,-2.0751,-2.0761,-2.0813,-2.0831,-2.0841,-2.0852,-2.0831,-2.0909,-2.0917,-2.0924,-2.095,-2.096,-2.0841,-2.0841,-2.084,-2.084,0,-2.0535,-2.0544,-2.0578,-2.0591,-2.0608,-2.0609,-2.0618,-2.0631,-2.0635,-2.0675,-2.0661,-2.0687,-2.0729,-2.0744,-2.0756,-2.0825,-2.0813,-2.0833,-2.0871,-2.0902,-2.091,-2.0918,-2.0945,-2.0955,-2.0838,-2.0838,-2.0839,0,-2.0477,-2.0486,-2.0502,-2.0531,-2.0541,-2.0569,-2.0539,-2.0568,-2.059,-2.0568,-2.0608,-2.0615,-2.0632,-2.068,-2.0701,-2.0686,-2.0778,-2.0747,-2.0752,-2.0755,-2.0785,-2.0795,-2.0804,-2.0685,-2.0685,-2.0684,0,0,-2.0452,-2.0477,-2.0486,-2.0525,-2.0532,-2.0534,-2.0548,-2.0543,-2.0558,-2.0564,-2.0572,-2.0587,-2.0613,-2.0629,-2.0653,-2.0704,-2.0709,-2.0729,-2.0736,-2.0742,-2.0748,-2.0779,-2.0789,-2.0682,-2.0682,-2.0682,0,0,-2.0441,-2.0452,-2.0443,-2.0487,-2.0502,-2.0513,-2.0537,-2.0527,-2.0547,-2.0543,-2.0537,-2.054,-2.0584,-2.0591,-2.0564,-2.0643,-2.0613,-2.0619,-2.0637,-2.0646,-2.0653,-2.0651,-2.0534,0,0,0,0,0,-2.0411,-2.0451,-2.0443,-2.045,-2.0485,-2.0518,-2.0522,-2.0517,-2.0498,-2.0518,-2.0522,-2.0507,-2.0576,-2.0552,-2.056,-2.0589,-2.0657,-2.0661,-2.0666,-2.07,-2.0709,-2.0717,0,0,0,0,0,0,-2.0414,-2.0423,-2.0442,-2.0454,-2.0462,-2.0516,-2.0482,-2.0482,-2.0496,-2.0492,-2.0507,-2.0508,-2.0504,-2.0548,-2.0555,-2.0583,-2.0532,-2.0658,-2.0662,-2.0666,-2.0703,-2.0711,-2.0718,0,0,0,0,0,-2.0416,-2.0424,-2.0481,-2.0454,-2.046,-2.0463,-2.048,-2.048,-2.0491,-2.0497,-2.0497,-2.0485,-2.0505,-2.0511,-2.0552,-2.058,-2.0527,-2.053,-2.0661,-2.0664,-2.0667,-2.0707,0,0,0,0,0,0,-2.0418,-2.0424,-2.0482,-2.0484,-2.0438,-2.046,-2.0464,-2.0478,-2.0494,-2.0495,-2.0475,-2.0472,-2.0506,-2.051,-2.0515,-2.0579,-2.0523,-2.0526,-2.0527,-2.0663,-2.0666,-2.0668,0,0,0,0,0,0,-2.042,-2.0426,-2.0483,-2.0463,-2.0463,-2.0458,-2.046,-2.0494,-2.0495,-2.0471,-2.047,-2.0474,-2.05,-2.051,-2.0514,-2.0566,-2.052,-2.0522,-2.0524,-2.0525,-2.0665,-2.0667,0,0,0,0,0,0,-2.0422,-2.0427,-2.0463,-2.0462,-2.0462,-2.0484,-2.0487,-2.0523,-2.0477,-2.0471,-2.0473,-2.0471,-2.05,-2.0503,-2.0513,-2.0564,-2.0565,-2.052,-2.0522,-2.0523,-2.0524,0,0,0,0,0,0,0,-2.0424,-2.0393,-2.0471,-2.0462,-2.0461,-2.0502,-2.0503,-2.0503,-2.0477,-2.0475,-2.0473,-2.0472,-2.0505,-2.0508,-2.0511,-2.0562,0,0,-2.052,-2.0521,0,0,0,0,0,0,0,0,-2.039,-2.0392,-2.0471,-2.0471,-2.0471,-2.0502,-2.0503,-2.0503,-2.0477,-2.0475,-2.0474,-2.0473,-2.0506,-2.0508,-2.051,0,0,0,0,0,0,0,0,0,0,0,0,0,0,0,-2.0471,-2.0471,0,-2.0502,-2.0503,-2.0503,-2.0476,-2.0475,-2.0474,-2.0473,-2.0506,-2.0508,-2.051,0,0,0,0,0,0,0,0,0,0,0,0,0,0,0,0,0,0,0,0,0,0,0,0,0,0,0,0,0,0,0,0,0,0,0,0,0,0,0,0,0,0,0,0,0,0,0,0,0,0,0,0,0,0,0,0,0,0,0,0,0,0,0,0,0,0,0,0,0]}]]]